Location: UBC Liquid-Mirror Observatory
(49.2876°N, 122.5728°W)
Time: 22:51:09
(UTC-07:00)

KITSAT 1 - Visible Passes

Search period start: 03 September 2015 00:00
Search period end: 13 September 2015 00:00
Orbit: 1304 x 1326 km, 66.1° (Epoch: 02 September)

Date Brightness Start Highest point End Pass type
(mag) Time Alt. Az. Time Alt. Az. Time Alt. Az.
03 Sep 12.1 00:08:35 10° WNW 00:15:19 27° NNW 00:22:00 10° NE visible
03 Sep 12.1 02:06:57 10° NW 02:13:35 26° NNE 02:20:16 10° ENE visible
03 Sep 11.0 04:03:05 10° NW 04:11:02 53° NE 04:18:58 10° ESE visible
03 Sep 10.2 20:30:31 10° SSW 20:38:28 66° ESE 20:46:32 10° NE visible
03 Sep 11.3 22:26:39 10° WSW 22:34:23 44° NW 22:42:06 10° NE visible
04 Sep 12.2 00:25:36 10° WNW 00:32:06 25° N 00:38:34 10° NE visible
04 Sep 12.0 02:23:24 10° NW 02:30:20 30° NNE 02:37:19 10° E visible
04 Sep 10.6 04:19:12 10° NW 04:27:21 67° NE 04:35:28 10° SE visible
04 Sep 10.3 20:46:23 10° SSW 20:54:30 87° SE 21:02:42 10° NE visible
04 Sep 11.7 22:43:29 10° W 22:50:54 36° NNW 22:58:17 10° NE visible
05 Sep 12.2 00:42:32 10° NW 00:48:54 24° N 00:55:18 10° NE visible
05 Sep 11.7 02:39:42 10° NW 02:46:59 34° NNE 02:54:19 10° E visible
05 Sep 10.3 04:35:19 10° NW 04:43:33 87° NE 04:51:42 10° SE visible
05 Sep 10.5 21:02:33 10° SW 21:10:39 73° NW 21:18:50 10° NE visible
05 Sep 11.9 23:00:28 10° W 23:07:32 31° NNW 23:14:34 10° NE visible
06 Sep 12.2 00:59:19 10° NW 01:05:44 25° N 01:12:11 10° ENE visible
06 Sep 11.4 02:55:55 10° NW 03:03:33 42° NE 03:11:12 10° ESE visible
06 Sep 10.2 04:51:29 10° NW 04:59:36 72° WSW 05:07:40 10° SSE visible
06 Sep 10.9 21:18:57 10° WSW 21:26:56 57° NW 21:34:57 10° NE visible
06 Sep 12.1 23:17:30 10° WNW 23:24:15 27° NNW 23:30:58 10° NE visible
07 Sep 12.1 01:15:55 10° NW 01:22:32 26° NNE 01:29:11 10° ENE visible
07 Sep 11.0 03:12:04 10° NW 03:20:00 52° NE 03:27:55 10° ESE visible
07 Sep 10.3 05:07:42 10° NW 05:15:34 53° WSW 05:23:20 10° S visible
07 Sep 11.3 21:35:36 10° WSW 21:43:20 45° NW 21:51:05 10° NE visible
07 Sep 12.2 23:34:31 10° WNW 23:41:02 25° N 23:47:30 10° NE visible
08 Sep 11.9 01:32:22 10° NW 01:39:16 29° NNE 01:46:14 10° E visible
08 Sep 10.6 03:28:11 10° NW 03:36:19 66° NE 03:44:26 10° SE visible
08 Sep 10.6 05:24:03 10° NW 05:31:25 38° WSW 05:38:38 10° S visible
08 Sep 11.7 21:52:25 10° W 21:59:51 37° NNW 22:07:16 10° NE visible
08 Sep 12.2 23:51:27 10° NW 23:57:51 24° N 00:04:14 10° NE visible
09 Sep 11.6 01:48:40 10° NW 01:55:56 34° NNE 02:03:15 10° E visible
09 Sep 10.2 03:44:18 10° NW 03:52:31 85° NE 04:00:41 10° SE visible
09 Sep 11.0 05:40:36 10° NW 05:47:10 27° WSW 05:53:29 10° SSW visible
09 Sep 10.6 20:11:31 10° SW 20:19:38 74° NW 20:27:49 10° NE visible
09 Sep 11.9 22:09:23 10° W 22:16:29 31° NNW 22:23:32 10° NE visible
10 Sep 12.1 00:08:15 10° NW 00:14:40 24° N 00:21:06 10° ENE visible
10 Sep 11.3 02:04:54 10° NW 02:12:30 41° NNE 02:20:08 10° ESE visible
10 Sep 10.1 04:00:27 10° NW 04:08:36 74° WSW 04:16:41 10° SSE visible
10 Sep 11.3 05:57:34 10° WNW 06:02:49 18° WSW 06:07:42 10° SW visible
10 Sep 11.0 20:27:55 10° WSW 20:35:54 58° NW 20:43:56 10° NE visible
10 Sep 12.0 22:26:25 10° WNW 22:33:12 27° NNW 22:39:55 10° NE visible
11 Sep 12.0 00:24:52 10° NW 00:31:28 26° NNE 00:38:06 10° ENE visible
11 Sep 10.9 02:21:03 10° NW 02:28:57 51° NE 02:36:52 10° ESE visible
11 Sep 10.3 04:16:40 10° NW 04:24:34 54° WSW 04:32:22 10° S visible
11 Sep 11.3 20:44:32 10° WSW 20:52:18 46° NW 21:00:04 10° NE visible
11 Sep 12.1 22:43:26 10° WNW 22:49:58 25° N 22:56:27 10° NE visible
12 Sep 11.8 00:41:19 10° NW 00:48:13 29° NNE 00:55:09 10° ENE visible
12 Sep 10.5 02:37:10 10° NW 02:45:18 65° NE 02:53:23 10° SE visible
12 Sep 10.6 04:33:00 10° NW 04:40:25 39° WSW 04:47:42 10° S visible
12 Sep 11.6 21:01:21 10° W 21:08:48 37° NNW 21:16:15 10° NE visible
12 Sep 12.1 23:00:23 10° NW 23:06:46 24° N 23:13:10 10° NE visible
